Wind_Speed
7 8 8 7 6 5 6 8 11 13 14 14 14 14 14 14 14 13 14 16 16 16 16 16 18 18 16 18 17 17 17 18 19 18 16 14 13 13 13 13 15 17 21
8 8 7 6 5 7 9 10 11 12 13 15 15 16 15 13 13 14 13 12 15 15 14 14 15 16 18 18 17 18 17 19 19 20 18 17 15 15 15 14 15 16 19
7 6 5 5 5 5 6 8 11 13 13 15 14 14 14 12 11 10 9 8 9 11 12 13 14 15 17 19 20 20 19 17 17 18 21 20 18 16 15 15 16 15 17
6 3 1 1 3 5 9 12 14 14 13 13 14 15 14 12 9 3 4 5 7 10 13 16 19 21 23 23 23 23 21 21 19 17 18 19 22 19 16 15 15 15 16
5 4 3 5 6 10 12 14 12 12 11 11 13 12 14 12 5 3 5 6 8 10 13 17 22 25 27 29 28 26 24 22 21 19 17 19 20 22 19 17 15 13 14
2 3 6 9 12 15 14 12 11 11 10 11 13 10 14 9 3 4 7 8 10 12 14 17 21 23 28 29 29 27 24 23 21 21 20 17 17 21 23 20 17 16 15
3 9 12 13 15 13 13 14 12 12 12 14 10 14 10 5 4 7 11 11 14 14 17 17 20 22 24 25 23 24 23 21 21 21 20 20 18 19 19 23 21 18 17
8 10 16 15 13 10 13 15 12 9 9 10 10 11 4 7 5 14 16 16 16 15 21 19 22 21 22 22 22 22 20 18 20 21 20 19 19 19 18 19 23 22 19
7 11 14 9 8 9 9 9 8 8 10 9 8 6 4 4 17 11 19 16 21 23 23 25 22 22 20 21 19 19 18 19 19 20 20 19 18 18 18 19 21 22 21
9 12 10 9 7 8 8 7 7 7 7 8 9 6 9 13 7 8 11 18 16 25 24 25 24 21 20 17 18 19 20 19 18 17 17 17 17 16 15 18 20 22 20
12 14 12 10 9 9 9 8 6 5 6 7 7 8 9 11 12 13 12 18 21 18 18 22 18 18 15 16 15 16 20 17 16 15 15 15 15 14 14 12 18 21 21
15 16 15 13 10 8 7 6 9 6 6 6 7 8 11 12 13 14 11 17 20 22 22 20 18 17 15 15 14 16 18 17 16 15 14 16 14 12 13 12 6 9 16
15 18 16 14 13 11 10 11 9 8 8 8 8 9 9 10 10 12 14 17 15 25 26 22 23 21 22 16 16 20 22 23 21 18 16 15 16 13 13 13 12 4 8
20 20 16 14 15 15 10 12 9 10 9 8 9 10 10 10 8 9 12 13 12 21 26 26 25 23 23 22 24 25 21 25 24 21 18 16 14 17 12 13 12 13 13
15 13 14 17 17 12 13 13 10 11 12 12 12 11 10 11 10 11 13 13 16 14 15 28 29 23 24 25 26 27 25 24 24 23 21 18 15 15 16 14 14 11 12
16 19 20 16 14 13 14 14 11 13 15 13 13 11 12 12 13 15 17 17 17 21 15 25 28 28 27 28 27 27 27 25 23 21 21 21 19 16 15 17 17 17 12
19 21 21 18 16 15 14 15 12 11 14 14 11 11 13 15 18 19 20 20 19 20 21 31 28 28 29 27 27 25 25 23 22 20 19 18 18 18 16 15 17 18 21
22 21 18 12 9 13 14 12 9 10 11 10 11 13 17 19 21 21 21 22 22 23 24 28 28 28 24 26 26 24 22 22 23 21 20 17 15 16 16 17 16 17 17
18 16 11 12 13 13 7 5 9 10 6 8 13 16 19 20 23 23 23 24 22 21 22 24 29 27 26 24 23 22 22 24 23 21 21 19 18 17 17 19 18 15 14
17 14 13 13 6 2 4 8 6 4 8 12 14 16 18 19 21 23 23 23 22 20 21 24 27 25 23 22 17 18 19 19 21 20 18 17 19 17 14 17 20 16 11
13 13 10 6 5 4 2 1 4 8 12 15 16 17 18 19 19 18 19 21 22 22 22 22 23 23 21 20 18 20 18 18 18 16 16 15 11 11 11 10 11 20 16
12 8 6 4 3 1 2 6 9 11 13 14 17 18 17 16 15 18 18 18 19 23 24 23 23 21 23 20 19 19 18 14 10 14 12 12 7 10 11 9 7 6 17
8 5 8 4 2 1 6 10 13 10 12 15 15 16 16 16 17 16 18 22 20 20 22 23 24 24 22 18 18 19 18 16 15 16 11 15 12 14 12 13 14 9 4
8 8 6 4 2 3 8 11 13 10 12 14 15 15 16 17 17 18 22 21 19 21 19 18 20 22 21 19 19 20 17 18 18 18 14 13 15 16 12 11 15 14 11
8 7 5 5 3 5 8 10 11 11 13 15 14 15 16 17 16 20 21 20 20 20 17 19 20 20 19 21 21 18 18 16 14 15 13 14 14 12 11 12 9 13 17
8 6 6 5 6 7 8 10 10 11 14 16 15 15 14 15 18 19 19 18 19 20 21 20 18 16 15 14 15 16 17 18 18 10 10 11 12 7 5 8 9 10 14
Wind_Direction
153 141 130 112 97 72 41 19 7 357 355 355 352 351 347 343 336 329 322 320 318 316 315 314 314 317 325 314 303 285 287 302 305 307 312 307 295 283 271 265 258 255 250
154 140 118 90 52 25 7 357 356 352 346 342 339 337 335 337 330 321 319 322 319 320 318 319 321 321 323 338 333 321 299 281 285 295 299 301 299 299 289 275 266 259 255
142 112 75 47 30 15 10 356 356 348 340 338 332 331 332 335 333 328 328 330 337 331 338 339 340 336 335 330 341 340 335 328 293 283 291 295 294 297 292 284 274 265 259
116 106 86 59 26 4 1 353 351 344 337 337 332 329 329 331 336 12 11 355 344 338 333 328 330 331 332 330 326 331 332 333 323 309 277 284 288 289 288 280 279 274 265
159 162 113 47 13 7 1 354 347 341 331 333 329 320 324 319 319 348 0 355 350 343 334 325 319 318 319 321 321 320 320 322 322 319 306 279 277 274 275 276 277 279 275
117 57 36 24 11 3 357 356 350 341 332 338 328 310 315 292 233 339 346 336 337 338 334 331 329 324 320 314 313 315 317 314 312 314 319 301 280 271 270 266 271 275 278
63 39 31 6 357 4 6 358 350 344 342 343 330 325 313 224 265 322 332 325 327 327 329 326 323 322 317 318 316 313 317 313 311 309 310 314 299 268 259 263 261 263 272
45 33 8 5 8 11 359 354 356 350 337 349 341 319 317 291 296 322 320 324 320 324 319 317 319 320 317 311 309 314 317 318 314 308 306 306 306 290 265 254 254 257 262
10 2 5 4 355 348 354 358 356 351 337 337 360 337 315 300 322 309 309 317 321 321 318 316 314 315 314 312 311 309 310 317 317 315 308 304 303 302 285 261 248 249 254
342 341 344 332 325 336 343 348 342 337 337 324 325 311 307 301 306 307 308 309 310 315 317 318 315 317 317 318 313 311 311 312 315 326 317 307 305 303 308 279 253 243 240
333 329 314 298 296 307 325 334 330 313 313 309 304 307 307 304 299 300 309 317 313 312 308 322 327 321 314 315 317 316 317 311 318 324 335 323 307 311 312 316 260 244 231
315 313 299 280 272 278 287 305 305 276 275 279 284 292 303 310 311 311 307 311 312 313 310 310 319 316 319 306 318 335 339 330 316 321 326 341 324 311 321 316 311 259 236
305 301 294 271 261 264 271 305 276 277 277 282 292 302 298 300 298 306 307 308 304 304 307 303 304 301 307 295 305 301 310 316 329 316 319 334 344 330 306 304 310 315 293
300 300 289 269 271 273 277 301 283 287 276 285 293 304 301 299 288 294 300 304 301 299 300 300 304 301 296 284 287 298 295 294 306 314 319 317 329 340 320 294 293 287 279
320 313 291 280 275 265 304 303 288 296 301 294 299 299 292 292 288 291 294 293 295 299 297 302 300 298 295 291 286 292 287 283 286 295 299 312 311 319 329 316 287 277 261
327 317 306 288 279 274 305 294 283 282 279 281 284 280 287 290 292 294 294 290 285 285 291 296 296 297 296 292 288 287 282 277 281 289 295 294 296 301 309 318 303 270 268
321 305 299 296 283 284 285 288 262 269 284 283 279 285 289 294 296 296 295 291 288 287 288 294 294 296 295 293 292 287 276 269 272 287 291 291 294 295 294 301 309 284 261
316 313 311 295 286 290 295 274 263 287 290 283 288 297 298 300 298 300 298 295 291 289 288 291 296 297 295 298 293 288 276 267 269 278 285 282 286 291 289 279 294 289 264
322 319 307 297 297 300 298 291 299 293 292 297 302 302 302 304 302 303 301 296 295 292 289 289 293 296 295 296 288 285 278 269 268 275 281 285 287 279 280 273 266 290 267
327 325 317 310 305 290 277 304 294 310 312 310 309 308 307 305 304 305 302 298 296 294 290 289 289 293 295 297 301 295 285 274 264 264 272 280 283 278 276 275 251 260 279
323 322 317 305 298 268 290 340 325 326 321 316 314 314 311 307 306 304 302 301 302 298 293 289 288 290 290 291 295 290 290 293 281 265 270 280 286 276 261 289 264 241 255
319 313 322 306 230 95 322 324 329 325 321 319 319 318 317 316 314 310 306 301 296 293 290 289 287 285 295 285 291 287 283 281 293 262 266 271 282 287 270 267 279 247 231
317 299 309 268 215 89 326 330 330 327 322 322 321 321 320 319 318 315 311 306 305 299 293 291 290 284 283 292 296 296 282 269 271 279 286 280 284 285 276 264 268 267 228
294 288 285 228 205 303 323 333 331 329 326 325 324 322 319 319 317 318 319 317 314 313 306 299 303 283 275 283 285 283 287 287 272 268 266 270 277 274 279 268 261 255 248
283 275 239 216 246 300 324 331 336 327 326 327 328 323 319 319 319 323 323 321 321 317 316 311 307 300 290 286 280 281 276 275 255 264 252 247 269 268 273 275 265 242 245
281 246 209 231 278 303 318 326 333 323 325 328 326 323 325 326 324 328 326 323 322 327 324 321 315 312 307 298 286 264 262 261 266 288 237 240 258 259 271 259 246 238 230
Height
871 871 873 873 874 874 874 872 872 871 869 866 864 862 859 856 854 853 851 849 846 845 843 841 839 837 835 834 833 833 832 831 832 831 830 830 829 830 830 828 829 828 831
872 871 872 873 874 873 873 873 870 869 868 865 863 860 857 854 852 850 849 847 843 842 840 839 837 835 833 831 829 827 827 828 827 827 827 826 825 823 822 822 823 823 825
872 873 873 873 873 874 872 871 869 868 867 863 861 858 855 852 850 848 846 844 842 839 837 836 835 833 831 828 826 824 822 822 822 822 821 821 821 819 818 818 819 818 819
872 872 872 872 872 871 869 869 867 866 865 862 860 857 853 851 848 846 845 843 841 839 836 834 832 830 829 827 824 822 820 817 816 816 815 815 814 814 815 815 815 813 814
872 870 871 870 872 869 869 868 867 865 863 860 857 854 851 849 847 845 844 843 840 838 835 832 829 827 825 823 821 819 817 815 812 810 810 811 811 811 812 812 812 810 810
872 872 871 871 872 869 868 868 867 865 862 858 855 852 849 847 845 844 843 842 839 837 834 831 828 825 822 819 817 814 813 812 809 807 805 804 804 804 804 806 806 806 808
872 871 872 872 870 868 868 867 865 862 860 857 852 849 846 844 844 843 843 840 838 835 833 830 827 824 820 816 813 811 809 807 805 803 801 799 798 797 797 799 800 802 803
871 871 870 869 869 868 867 865 863 861 859 856 853 848 841 842 843 842 841 839 836 833 831 828 825 821 818 814 810 807 805 804 802 800 797 795 793 792 792 793 794 796 797
869 868 868 868 867 867 865 864 862 861 858 857 855 853 845 840 842 839 838 837 835 831 828 825 822 818 815 811 809 806 803 800 798 796 794 791 789 787 787 787 788 789 791
869 868 866 865 865 864 862 861 859 858 857 855 854 854 853 850 845 837 837 836 835 832 827 823 819 816 813 809 806 804 800 798 796 793 790 788 786 783 781 780 781 782 784
867 866 864 863 862 861 860 859 857 857 856 855 854 853 851 849 846 843 835 834 833 830 827 825 819 815 812 809 805 802 798 795 793 791 788 785 782 780 777 774 774 775 777
865 863 862 860 859 858 856 855 854 854 853 852 852 851 849 846 843 841 837 835 829 825 824 820 818 814 810 807 803 799 796 794 791 789 786 782 779 776 774 771 769 770 772
861 859 858 856 855 854 853 852 851 851 850 849 848 847 845 844 842 840 837 833 829 823 818 817 814 810 807 804 800 797 794 791 789 786 783 780 777 774 771 770 768 765 766
858 856 854 853 852 851 851 849 848 848 848 845 844 843 841 840 839 837 835 833 825 820 815 810 809 805 803 799 796 794 792 788 786 783 780 777 775 772 769 767 766 763 762
855 853 852 850 849 848 847 846 844 844 844 843 841 839 837 837 835 834 832 830 827 815 806 804 801 800 798 795 792 789 786 784 781 779 777 774 773 771 769 766 764 762 761
854 851 849 847 845 844 843 843 840 841 839 839 837 836 834 833 832 830 828 825 822 817 803 803 798 796 793 789 787 784 780 778 775 774 772 770 769 768 767 765 762 760 759
851 848 844 842 840 840 839 838 837 836 836 836 834 833 831 830 828 825 823 820 816 813 804 794 795 791 787 784 780 778 774 772 771 769 768 767 765 763 763 762 760 757 756
847 843 840 838 837 837 836 834 833 833 833 832 831 830 827 826 823 820 817 814 811 808 803 793 789 786 782 779 775 772 769 767 765 765 764 763 762 761 759 758 757 754 752
843 839 837 836 834 832 832 832 831 830 830 829 828 826 823 820 817 814 811 807 804 802 798 793 783 782 778 774 769 766 763 762 760 760 759 758 757 757 755 753 753 752 749
839 837 835 833 832 831 830 830 829 829 828 827 825 822 819 816 812 809 806 802 799 796 793 789 781 777 773 770 766 763 759 756 754 755 755 754 752 751 751 749 748 750 748
837 834 832 831 831 830 829 828 828 826 825 823 820 817 814 811 808 805 802 798 795 791 787 782 777 772 768 764 762 760 757 755 752 751 750 750 749 748 747 746 745 746 747
833 831 830 829 829 828 827 826 825 824 822 819 816 813 810 807 804 801 797 794 791 786 782 777 772 767 763 761 759 757 754 753 750 747 747 746 747 745 745 744 743 742 743
831 830 828 827 827 826 825 824 822 821 819 816 813 810 806 803 800 796 793 788 784 780 777 773 768 764 760 758 756 754 751 750 748 748 746 744 745 743 743 742 741 741 741
828 827 825 825 825 824 823 821 819 818 816 813 810 807 803 800 797 793 788 783 779 775 771 767 763 758 755 754 753 751 748 746 743 742 743 742 742 740 740 739 738 739 739
825 824 823 823 823 822 820 819 817 816 813 810 807 804 801 797 793 790 785 780 775 771 767 763 759 754 751 749 748 747 744 742 738 736 737 738 737 737 736 736 735 735 736
821 820 820 820 820 819 818 816 815 814 811 808 805 801 798 795 791 787 782 777 773 768 764 758 754 750 747 744 742 741 740 738 735 734 733 735 733 734 732 731 731 732 733